E22ZMG-4 Weather Reports


Display with metric or nautical units.
time (UTC)temp
F
wind
direction
speed
MPH
gust
MPH
rain 1hr
in
rain 24hr
in
rain mn
in
humidity
%
barometer
mb
20260504045006 82 0 0.0 0.0 0.00 0.00 0.00 35 976.0
20260504043942 78 0 0.0 0.0 0.00 0.00 0.00 37 977.0
20260504042917 78 0 0.0 0.0 0.00 0.00 0.00 37 977.0
20260504041852 78 0 0.0 0.0 0.00 0.00 0.00 37 977.0
20260504040828 78 0 0.0 0.0 0.00 0.00 0.00 37 977.0
20260504035803 79 0 0.0 0.0 0.00 0.00 0.00 37 977.0
20260504034739 79 0 0.0 0.0 0.00 0.00 0.00 38 977.0
20260504033715 79 0 0.0 0.0 0.00 0.00 0.00 39 977.0
20260504032650 79 0 0.0 0.0 0.00 0.00 0.00 38 977.0
20260504031625 79 0 0.0 0.0 0.00 0.00 0.00 37 977.0
20260504030601 80 0 0.0 0.0 0.00 0.00 0.00 37 978.0
20260504025536 80 0 0.0 0.0 0.00 0.00 0.00 37 978.0
20260504024512 81 0 0.0 0.0 0.00 0.00 0.00 38 978.0
20260504023447 81 0 0.0 0.0 0.00 0.00 0.00 39 978.0
20260504022422 82 0 0.0 0.0 0.00 0.00 0.00 38 978.0
20260504021358 83 0 0.0 0.0 0.00 0.00 0.00 41 978.0
20260504020333 84 0 0.0 0.0 0.00 0.00 0.00 45 978.0
20260504015309 84 0 0.0 0.0 0.00 0.00 0.00 46 978.0
20260504014245 84 0 0.0 0.0 0.00 0.00 0.00 48 978.0
20260504013220 83 0 0.0 0.0 0.00 0.00 0.00 40 978.0
20260504012155 83 0 0.0 0.0 0.00 0.00 0.00 40 978.0
20260504011130 84 0 0.0 0.0 0.00 0.00 0.00 40 977.0
20260504010101 86 0 0.0 0.0 0.00 0.00 0.00 43 977.0
20260504005037 89 0 0.0 0.0 0.00 0.00 0.00 46 977.0
20260504004012 88 0 0.0 0.0 0.00 0.00 0.00 47 977.0
20260504002948 88 0 0.0 0.0 0.00 0.00 0.00 47 977.0
20260504001923 87 0 0.0 0.0 0.00 0.00 0.00 47 977.0
20260504000859 87 0 0.0 0.0 0.00 0.00 0.00 47 977.0
20260504000617 87 0 0.0 0.0 0.00 0.00 0.00 47 977.0
20260503235553 87 0 0.0 0.0 0.00 0.00 0.00 47 977.0
20260503234529 87 0 0.0 0.0 0.00 0.00 0.00 47 977.0
20260503233504 87 0 0.0 0.0 0.00 0.00 0.00 47 976.0
20260503232439 87 0 0.0 0.0 0.00 0.00 0.00 47 976.0
20260503231414 87 0 0.0 0.0 0.00 0.00 0.00 46 976.0
20260503230350 87 0 0.0 0.0 0.00 0.00 0.00 46 976.0
20260503225325 87 0 0.0 0.0 0.00 0.00 0.00 46 976.0
20260503224301 87 0 0.0 0.0 0.00 0.00 0.00 46 976.0
20260503223236 87 0 0.0 0.0 0.00 0.00 0.00 46 976.0
20260503222211 87 0 0.0 0.0 0.00 0.00 0.00 46 976.0
20260503221146 87 0 0.0 0.0 0.00 0.00 0.00 46 976.0
20260503220120 88 0 0.0 0.0 0.00 0.00 0.00 46 976.0
20260503215055 88 0 0.0 0.0 0.00 0.00 0.00 45 975.0
20260503214029 88 0 0.0 0.0 0.00 0.00 0.00 45 975.0
20260503213003 88 0 0.0 0.0 0.00 0.00 0.00 45 975.0
20260503211939 88 0 0.0 0.0 0.00 0.00 0.00 45 975.0
20260503210914 88 0 0.0 0.0 0.00 0.00 0.00 45 975.0
20260503205850 88 0 0.0 0.0 0.00 0.00 0.00 44 975.0
20260503204824 88 0 0.0 0.0 0.00 0.00 0.00 44 975.0
20260503203759 88 0 0.0 0.0 0.00 0.00 0.00 44 975.0
20260503202733 88 0 0.0 0.0 0.00 0.00 0.00 44 975.0
20260503201708 88 0 0.0 0.0 0.00 0.00 0.00 44 975.0
20260503200644 88 0 0.0 0.0 0.00 0.00 0.00 43 975.0
20260503195618 88 0 0.0 0.0 0.00 0.00 0.00 43 975.0
20260503194553 88 0 0.0 0.0 0.00 0.00 0.00 43 975.0
20260503193528 88 0 0.0 0.0 0.00 0.00 0.00 43 975.0
20260503192504 88 0 0.0 0.0 0.00 0.00 0.00 43 975.0
20260503191439 88 0 0.0 0.0 0.00 0.00 0.00 42 975.0
20260503190414 88 0 0.0 0.0 0.00 0.00 0.00 42 975.0
20260503185349 89 0 0.0 0.0 0.00 0.00 0.00 42 975.0
20260503184325 89 0 0.0 0.0 0.00 0.00 0.00 42 975.0
20260503183259 89 0 0.0 0.0 0.00 0.00 0.00 42 975.0
20260503182234 89 0 0.0 0.0 0.00 0.00 0.00 41 975.0
20260503181210 89 0 0.0 0.0 0.00 0.00 0.00 41 975.0
20260503180144 89 0 0.0 0.0 0.00 0.00 0.00 41 975.0
20260503175120 89 0 0.0 0.0 0.00 0.00 0.00 40 975.0
20260503174055 89 0 0.0 0.0 0.00 0.00 0.00 40 975.0
20260503173029 89 0 0.0 0.0 0.00 0.00 0.00 40 975.0
20260503172005 89 0 0.0 0.0 0.00 0.00 0.00 40 975.0
20260503170939 89 0 0.0 0.0 0.00 0.00 0.00 40 975.0
20260503150438 89 0 0.0 0.0 0.00 0.00 0.00 37 975.0
20260503140208 88 0 0.0 0.0 0.00 0.00 0.00 35 974.0
20260503131003 86 0 0.0 0.0 0.00 0.00 0.00 34 973.0
20260503110504 88 0 0.0 0.0 0.00 0.00 0.00 34 971.0
20260503100236 78 0 0.0 0.0 0.00 0.00 0.00 37 971.0
20260503080750 80 0 0.0 0.0 0.00 0.00 0.00 36 972.0
20260503072610 80 0 0.0 0.0 0.00 0.00 0.00 37 973.0
20260503071545 81 0 0.0 0.0 0.00 0.00 0.00 37 973.0
20260503070520 81 0 0.0 0.0 0.00 0.00 0.00 37 973.0